Location: Newark
(49.3000°N, 9.4667°E)
Time: 18:41:26
(UTC+00:00)

Tiros 1 - Pass Details

Date: 24 May 2019
Orbit: 631 x 664 km, 48.4° (Epoch: 16 June)

Event Time Altitude Azimuth Distance (km) Brightness Sun altitude
Rises 14:01:55 0° 281° (W) 2,950 11.0 47.0°
Reaches altitude 10° 14:04:16 10° 277° (W) 2,044 10.5 46.6°
Maximum altitude 14:08:53 57° 199° (SSW) 767 8.8 45.9°
Drops below altitude 10° 14:13:32 10° 122° (ESE) 2,060 9.6 45.3°
Sets 14:15:55 0° 118° (ESE) 2,974 10.3 44.9°
